Location: Gwatt
(46.7204°N, 7.6223°E)
Time: 14:11:34
(UTC+00:00)

S-56A Canister/Altair - Pass Details

Date: 21 January 2021
Orbit: 632 x 2501 km, 38.9° (Epoch: 28 February)

Event Time Altitude Azimuth Distance (km) Brightness Sun altitude
Rises 02:38:21 0° 221° (SW) 2,928 - -45.1°
Reaches altitude 10° 02:41:08 10° 203° (SSW) 2,001 - -44.6°
Maximum altitude 02:44:20 20° 156° (SSE) 1,520 - -44.1°
Drops below altitude 10° 02:47:48 10° 110° (ESE) 2,191 - -43.6°
Exits shadow 02:48:33 - 104° (ESE) 2,435 10.6 -43.4°
Sets 02:51:01 0° 93° (E) 3,313 11.5 -43.0°
